STARLINK-1646, 46351

Orbit data source: Space-Track

STARLINK-1646, 46351 is a payload satellite owned by SpaceX/Seattle (US) in LEO that was launched on Thu, 03 Sep 2020 UTC via an FALCON 9 launch vehicle from the Air Force Eastern Test Range (AFETR). Payload-class satellites include a variety of spacecraft equipped with specific instruments for various scientific and technological missions. These include communications satellites like Starlink; space stations such as the ISS; scientific satellites like the Hubble; Earth observation satellites from companies like Planet Labs, Umbra, and HawkEye 360; GPS; miniature CubeSats for education and research; and military/defense satellites.

Loading next visibility...
Identifier
46351, 2020-062AC
Orbit
LEO
Country
Flag of USUS
Related business
Manufacturer
SpaceX/Seattle
Mission
Operational Commercial Communications
Bus & Motor
STARLINK, Unknown motor
Mass
260 kg wet, ~248 kg dry
Launch date (UTC)
2020-09-03 (5 years ago)
Launch vehicle
FALCON 9
Launch site
Air Force Eastern Test Range (AFETR)
Object type
Payload
Rocket body
Debris
Shape & HBR
Box + 1 Pan, 4.4 m
Radar Cross Section
13.562 m², Large (>1 m²)

Expand to show TLE details & history
Last TLE update: 9 hours ago

TLE from 9 hours ago
0 STARLINK-1646
1 46351U 20062AC  25242.94930011  .00011117  00000-0  76363-3 0  9990
2 46351  53.0521 132.8841 0000923 128.8986 231.2086 15.06418188275851
Epoch: 2025-08-30T22:46Z
TLE epoch observation values (Epoch: 2025-08-30T22:46:59.529Z)
Latitude
0.00003°
Longitude
171.75982°
Altitude
548.435 km
Speed
7.589 km/s
True Right ascension
08h 51m 32s
True Declination
0° 00' 00"
Sunlit
Object was in daylight at epoch
Visualization orbit readout
Latitude
Unknown
Longitude
Unknown
Altitude
Unknown
Speed
Unknown
Apparent Right ascension
Unknown
Apparent Declination
Unknown
Sunlit
N/A
Visualization observer readout
Local Sidereal Time
22:58:53
Azimuth
Unknown
Elevation
Unknown
Doppler factor
Unknown
Orbital elements
Apogee altitude
548.066 km
Perigee altitude
546.788 km
Semi-major axis
6,925.564 km
Eccentricity
0.00009
Inclination
53.0521°
RAAN
132.8841°
Arg. of periapsis
128.8986°
True anomaly
231.20036°
Mean anomaly
231.2086°
Eccentric anomaly
231.20448°
Mean motion
3.76583 °/min
Orbital period
95.6 mins
BSTAR
0.00076363
Loading maneuver chart data...
Computing Atmospheric mass density...
Loading historical data...
Loading historical data...
Loading historical data...
Loading historical data...
Loading historical data...
Loading historical data...
Loading historical data...

Documentation

Showing up to 5 results
|